New York Downtown Manhattan/w, NY

8:56 PM EDT on September 20, 2019 (GMT -0400)
New York Downtown Manhattan/w

Weather History for KJRB - May, 2019

Change the Weather History Date:

Thursday, May 30, 2019

  Actual Average (WUND) Record (WUND)
Temperature  
Mean Temperature 62 °F -  
Max Temperature 69 °F - - (-1)
Min Temperature 57 °F - - (-1)
Degree Days  
Heating Degree Days 2    
Growing Degree Days 12 (Base 50)    
Moisture  
Dew Point 59 °F    
Average Humidity 91    
Maximum Humidity 100    
Minimum Humidity 73    
Precipitation  
Precipitation 0.94 in - - ()
Sea Level Pressure  
Sea Level Pressure 29.76 in    
Wind  
Wind Speed 4 mph ()    
Max Wind Speed 8 mph    
Max Gust Speed -    
Visibility 6.8 miles    
Events Rain , Thunderstorm    
Averages and records for this station are not official NWS values.
T = Trace of Precipitation, MM = Missing Value Source: Averaged Metar Reports

Daily Weather History Graph

Daily Weather History Graph

Search for Another Location

Airport or City:

Astronomy

May. 30, 2019 Rise Set
Actual Time 5:28 AM EDT 8:19 PM EDT
Civil Twilight 4:55 AM EDT 8:51 PM EDT
Nautical Twilight 4:14 AM EDT 9:32 PM EDT
Astronomical Twilight 3:27 AM EDT 10:20 PM EDT
Moon 3:34 AM EDT (5/30) 4:22 PM EDT (5/30)
Length of Visible Light 15h 56m
Length of Day
14h 51m
Waning Crescent, 15% of the Moon is Illuminated
May 30
Waning Crescent
Jun 3
New
Jun 10
First Quarter
Jun 17
Full
Jun 25
Last Quarter

Hourly Weather History & Observations

Time (EDT) Temp. Dew Point Humidity Pressure Visibility Wind Dir Wind Speed Gust Speed Precip Events Conditions
12:30 AM 57.2 °F 55.4 °F 94% 29.77 in 6.0 mi ENE 5.8 mph - N/A   Overcast
12:56 AM 57.9 °F 55.9 °F 93% 29.77 in 5.0 mi NE 4.6 mph - N/A   Overcast
1:56 AM 57.9 °F 57.0 °F 97% 29.75 in 6.0 mi ENE 5.8 mph - N/A   Overcast
2:56 AM 59.0 °F 57.0 °F 93% 29.77 in 8.0 mi East 4.6 mph - N/A   Overcast
3:56 AM 57.9 °F 57.0 °F 97% 29.77 in 5.0 mi ENE 4.6 mph - N/A   Overcast
4:04 AM 57.2 °F 57.2 °F 100% 29.77 in 6.0 mi East 3.5 mph - N/A   Overcast
4:56 AM 57.9 °F 55.9 °F 93% 29.78 in 7.0 mi NE 5.8 mph - N/A   Overcast
5:56 AM 57.9 °F 55.9 °F 93% 29.79 in 7.0 mi NE 4.6 mph - N/A   Overcast
6:56 AM 59.0 °F 57.0 °F 93% 29.81 in 4.0 mi NE 3.5 mph - N/A   Mist
7:03 AM 59.0 °F 57.2 °F 94% 29.81 in 4.0 mi Variable 3.5 mph - N/A   Overcast
7:24 AM 59.0 °F 57.2 °F 94% 29.81 in 3.0 mi NE 4.6 mph - N/A   Overcast
7:56 AM 60.1 °F 57.9 °F 93% 29.81 in 4.0 mi NNE 5.8 mph - N/A   Overcast
8:56 AM 59.0 °F 57.9 °F 96% 29.84 in 3.0 mi SSW 5.8 mph - N/A   Overcast
9:01 AM 59.0 °F 57.2 °F 94% 29.84 in 1.8 mi SSW 5.8 mph - N/A   Overcast
9:16 AM 59.0 °F 57.2 °F 94% 29.84 in 2.0 mi SSW 5.8 mph - N/A   Overcast
9:40 AM 59.0 °F 57.2 °F 94% 29.84 in 6.0 mi Calm Calm - N/A   Overcast
9:56 AM 61.0 °F 57.9 °F 90% 29.83 in 10.0 mi Calm Calm - N/A   Overcast
10:17 AM 60.8 °F 57.2 °F 88% 29.83 in 10.0 mi SSE 4.6 mph - N/A   Overcast
10:56 AM 64.0 °F 59.0 °F 84% 29.83 in 10.0 mi Calm Calm - N/A   Overcast
11:10 AM 64.4 °F 59.0 °F 83% 29.83 in 10.0 mi Calm Calm - N/A   Overcast
11:56 AM 66.9 °F 59.0 °F 76% 29.82 in 10.0 mi West 4.6 mph - N/A   Overcast
12:56 PM 66.0 °F 59.0 °F 78% 29.81 in 9.0 mi Variable 5.8 mph - 0.01 in   Overcast
1:08 PM 66.2 °F 59.0 °F 78% 29.81 in 9.0 mi Variable 4.6 mph - N/A   Overcast
1:56 PM 68.0 °F 59.0 °F 73% 29.80 in 10.0 mi SE 5.8 mph - N/A   Overcast
2:23 PM 66.2 °F 59.0 °F 78% 29.79 in 10.0 mi SSE 8.1 mph - N/A   Overcast
2:56 PM 64.0 °F 59.0 °F 84% 29.77 in 10.0 mi ESE 6.9 mph - N/A   Overcast
3:32 PM 64.4 °F 60.8 °F 88% 29.76 in 10.0 mi Variable 4.6 mph - 0.00 in   Overcast
3:56 PM 64.9 °F 59.0 °F 81% 29.75 in 8.0 mi SSE 8.1 mph - 0.00 in   Overcast
4:28 PM 64.4 °F 60.8 °F 88% 29.74 in 10.0 mi SE 4.6 mph - N/A   Overcast
4:56 PM 64.0 °F 60.1 °F 87% 29.73 in 10.0 mi SE 8.1 mph - N/A   Overcast
5:56 PM 63.0 °F 60.1 °F 90% 29.72 in 8.0 mi Variable 6.9 mph - 0.47 in Rain , Thunderstorm Light Rain
5:59 PM 62.6 °F 60.8 °F 94% 29.71 in 5.0 mi Variable 4.6 mph - 0.00 in Rain Light Rain
6:05 PM 62.6 °F 60.8 °F 94% 29.72 in 1.8 mi Variable 4.6 mph - 0.04 in Rain Rain
6:25 PM 62.6 °F 60.8 °F 94% 29.73 in 1.2 mi SSE 4.6 mph - 0.20 in Rain , Thunderstorm Rain
6:35 PM 62.6 °F 60.8 °F 94% 29.71 in 2.0 mi Variable 4.6 mph - 0.23 in   Overcast
6:47 PM 62.6 °F 60.8 °F 94% 29.72 in 3.0 mi North 3.5 mph - 0.26 in Rain Light Rain
6:56 PM 62.1 °F 61.0 °F 96% 29.73 in 3.0 mi Variable 4.6 mph - 0.28 in   Overcast
7:20 PM 62.6 °F 60.8 °F 94% 29.71 in 2.5 mi NE 6.9 mph - 0.06 in Rain Light Rain
7:30 PM 62.6 °F 60.8 °F 94% 29.71 in 10.0 mi NE 6.9 mph - 0.07 in   Overcast
7:56 PM 63.0 °F 61.0 °F 93% 29.70 in 9.0 mi East 6.9 mph - 0.07 in Rain Light Rain
8:28 PM 62.6 °F 60.8 °F 94% 29.70 in 2.0 mi East 5.8 mph - 0.09 in Rain Light Rain
8:35 PM 62.6 °F 60.8 °F 94% 29.69 in 5.0 mi NNE 6.9 mph - 0.09 in Rain Light Rain
8:56 PM 62.1 °F 61.0 °F 96% 29.70 in 10.0 mi NE 6.9 mph - 0.10 in Rain Light Rain
9:20 PM 62.6 °F 62.6 °F 100% 29.70 in 10.0 mi NNE 6.9 mph - 0.00 in Rain Light Rain
9:56 PM 63.0 °F 62.1 °F 97% 29.71 in 10.0 mi Calm Calm - 0.00 in Rain Light Rain
10:13 PM 62.6 °F 62.6 °F 100% 29.71 in 10.0 mi NE 3.5 mph - 0.00 in Rain Light Rain
10:56 PM 63.0 °F 62.1 °F 97% 29.70 in 10.0 mi WSW 3.5 mph - 0.01 in   Mostly Cloudy
11:13 PM 62.6 °F 62.6 °F 100% 29.69 in 9.0 mi WSW 4.6 mph - N/A   Overcast
11:56 PM 64.0 °F 63.0 °F 96% 29.69 in 7.0 mi West 5.8 mph - 0.00 in Rain Light Rain